LiveATC.Net - Listen to live air traffic control over the Internet!


ICAO: KTEB  IATA: TEB   Airport: Teterboro Airport
City: Teterboro   State/Province: New Jersey
Country: United States   Continent: North America
KTEB METAR Weather: KTEB 270451Z 17004KT 10SM CLR 22/09 A3012 RMK AO2 SLP198 T02170094 403060178
KTEB Flight Activity (FlightAware)
KTEB Airport Info   (AirNav) (iFlightPlanner)
KTEB VFR Sectional Chart   (iFlightPlanner) 
KTEB IFR Low Chart   (iFlightPlanner) 
KTEB Tower
Feed Status: DOWN
Last heard on: 2015-06-16 14:42:03 (376 days 15 hours 7 minutes ago)
KTEB Tower Audio Archives
FacilityFrequency
Teterboro Tower119.500
Teterboro Tower125.100


NOTICE

Unauthorized use prohibited. See LiveATC.net Terms of Service


Find LiveATC Audio Streams


Airport/ARTCC Code

Frequency
(e.g., 124.400, 128.75)
Site-wide search

Browse LiveATC Feeds
LiveATC Coverage Map
Top 50 LiveATC Feeds
Bad Weather Areas

LiveATC FAQ
Offer a LiveATC Feed
Contact LiveATC.net
Press Inquiries

LiveATC on iPhone
LiveATC on Android

Windows Phone
Windows 8/10

LiveATC Mobile
(Mobile browser)

ATC Audio Archives
Interesting Recordings

LiveATC Forums


Home Page
About LiveATC.net
Make a Donation
LiveATC Store

Terms of Use
Privacy Policy

Canadian Air Freqs

AIRMETs/SIGMETs

FAA Airport Status
Nat'l Airspace Status
Arrival Demand Charts


Server Software By:
Icecast.org
Liquidsoap